Temperature
23 20 21 21 21 23 23 23 23 23 23 22 21 21 21 20 20 19 19 19 20 20 21 22 22 22 22 22 22 22 21 21 20 20 19 19 19 19 18 18 18 18 17 17
20 21 22 22 22 22 23 23 23 23 23 22 22 21 21 20 20 19 19 18 19 20 21 22 22 23 23 23 22 22 22 21 21 20 20 19 19 18 18 18 17 17 17 17
22 23 23 24 24 23 23 23 24 24 23 21 22 21 20 20 20 19 19 19 19 20 21 22 22 23 23 22 22 22 21 21 20 20 19 19 18 18 18 17 17 17 17 17
22 23 24 24 24 24 23 24 24 23 22 20 21 20 20 19 19 18 18 19 20 21 22 22 22 22 22 22 22 21 21 21 20 19 19 18 18 17 17 17 16 16 16 16
23 24 24 24 25 24 24 22 22 21 21 19 19 19 19 18 19 18 18 19 20 21 22 22 22 22 22 21 21 21 21 20 20 19 18 18 17 17 17 16 16 16 16 16
23 24 24 25 24 24 23 21 19 17 17 19 20 19 19 17 19 19 18 19 20 21 21 22 22 21 21 21 21 21 20 20 20 19 18 18 17 17 16 16 16 16 15 15
22 23 23 24 24 23 21 19 18 18 17 18 18 18 18 18 18 18 18 20 20 21 21 21 21 21 21 21 21 21 20 20 20 19 18 18 17 16 16 15 15 15 15 15
21 21 23 24 24 23 22 19 18 18 17 17 18 18 18 18 18 18 18 18 19 19 20 20 21 21 21 21 21 21 20 20 19 19 18 18 17 16 16 15 15 15 14 14
21 21 23 24 24 23 21 19 18 16 17 17 17 18 18 16 16 16 16 16 16 17 18 19 19 20 20 20 20 20 20 20 19 19 18 17 17 16 15 15 15 14 14 14
21 22 22 22 23 22 21 17 15 16 17 17 18 17 15 14 13 13 13 13 13 15 16 17 17 18 19 19 19 19 19 19 19 18 17 17 16 16 15 15 14 14 14 14
21 20 21 20 21 21 21 19 15 14 15 16 16 16 15 13 12 12 12 12 12 13 14 15 16 17 17 18 18 18 18 18 18 17 17 16 16 15 15 14 14 14 13 13
18 17 18 19 19 19 20 20 16 17 17 14 14 14 14 13 12 12 12 12 12 12 13 14 15 16 16 17 17 17 17 16 16 16 16 16 16 15 15 14 14 13 13 13
17 17 18 18 18 19 20 19 18 15 14 13 14 14 13 12 12 12 11 11 11 12 12 13 14 14 14 15 15 15 15 15 15 15 15 15 15 15 14 14 14 13 13 13
17 17 18 19 19 19 19 19 18 15 14 14 14 14 12 11 11 11 11 11 11 11 11 12 12 12 12 12 12 13 13 13 14 14 14 14 15 15 14 14 13 13 13 12
18 18 18 17 18 19 18 17 16 15 14 14 14 12 11 11 11 11 11 11 11 10 10 10 11 11 11 11 11 11 12 12 12 13 13 14 14 14 14 13 13 13 12 12
16 18 18 18 19 18 17 16 15 14 13 13 12 11 11 11 11 11 10 10 10 10 10 10 10 10 10 10 10 10 10 11 11 11 12 12 13 13 13 13 13 12 12 12
15 16 17 17 17 18 15 13 13 12 12 12 11 11 11 10 10 10 10 9 10 10 10 10 10 10 10 10 10 10 10 10 10 10 10 11 11 11 12 12 12 12 12 12
14 14 14 15 17 17 13 13 13 12 11 11 11 10 10 9 9 9 10 10 10 10 10 10 10 10 10 10 10 10 9 9 9 9 9 10 10 10 10 11 11 12 11 11
13 14 13 14 16 14 13 13 12 12 11 10 10 10 9 9 9 10 10 10 10 9 9 10 10 10 10 10 10 9 9 9 9 9 9 9 9 9 9 10 10 11 11 11
12 12 13 14 16 15 12 12 12 12 11 10 9 9 9 8 7 8 10 9 9 9 9 9 9 9 10 10 9 9 9 9 9 9 9 9 9 9 9 9 9 10 10 11
12 12 12 13 14 12 11 11 12 11 10 10 10 9 9 8 7 8 9 9 9 9 9 9 9 9 9 9 9 9 9 9 8 8 8 8 8 8 8 8 9 9 10 10
11 12 12 12 13 12 10 10 10 9 10 10 10 9 9 8 8 9 9 9 9 9 9 9 8 8 8 8 8 8 8 8 8 8 8 8 8 8 8 8 8 8 9 9
9 9 10 10 10 10 10 10 11 10 10 10 9 9 9 8 8 8 8 8 8 8 8 8 8 8 8 8 7 7 7 7 7 7 7 7 7 7 7 7 8 8 8 9
9 9 9 9 10 11 11 11 11 10 9 9 9 9 9 8 8 8 8 8 8 8 8 7 7 7 7 7 7 7 7 7 6 6 7 7 7 7 7 7 7 7 8 8
8 9 9 9 10 10 11 11 10 9 9 9 9 9 9 8 8 8 8 8 8 8 7 7 7 6 6 6 6 6 6 6 6 6 6 6 6 6 7 7 7 7 8 8
8 9 9 9 10 9 10 10 9 9 9 9 9 9 9 8 8 8 8 7 7 7 7 7 6 6 6 6 6 6 6 5 5 5 5 5 6 6 6 6 7 7 8 8
Wind_Speed
4 4 2 6 6 4 1 1 2 4 4 5 6 4 4 4 4 5 5 6 7 6 3 3 5 6 5 5 5 5 5 4 3 2 2 2 3 4 3 4 4 5 6 7
5 4 6 5 4 3 2 1 1 3 5 3 3 4 4 3 1 1 3 5 6 5 3 2 2 3 4 5 5 5 5 4 3 2 2 2 2 2 3 3 4 5 5 6
3 6 4 1 2 3 1 3 2 1 4 6 3 6 4 4 4 3 3 3 4 6 6 5 5 5 5 5 6 5 5 4 4 2 0 1 2 2 3 3 4 5 6 6
3 5 3 2 1 4 1 3 2 1 3 3 3 2 5 3 3 1 2 4 5 6 7 7 7 7 7 7 5 5 5 4 3 2 1 1 1 3 3 3 4 6 6 6
5 4 3 2 2 2 2 4 4 3 3 2 4 2 7 4 3 4 6 7 8 8 9 9 9 8 7 6 5 5 5 4 3 2 3 2 3 3 3 4 5 5 5 6
5 4 1 1 2 3 4 6 6 6 5 2 2 0 5 4 5 5 6 8 9 9 8 9 7 6 6 5 5 5 6 5 4 4 4 4 4 5 5 6 6 5 5 5
7 8 6 0 3 5 7 7 6 7 6 4 4 2 7 6 5 5 7 8 7 6 6 7 7 7 6 6 6 6 7 7 6 5 5 5 5 5 5 6 5 6 5 5
2 6 5 2 2 3 2 8 6 3 4 6 4 4 4 5 8 6 4 5 6 7 6 7 7 6 6 7 7 6 7 7 6 6 6 5 5 4 4 5 5 5 5 6
5 6 6 3 2 4 4 3 6 6 3 2 6 6 7 12 16 14 12 11 11 10 9 9 8 7 6 6 5 5 6 6 6 6 6 5 6 6 6 6 5 5 5 6
8 5 6 6 5 5 3 8 6 5 4 4 5 3 5 11 14 14 14 13 13 12 13 12 12 11 9 8 7 6 4 5 5 5 5 5 6 6 6 5 6 6 6 6
4 4 6 6 4 3 2 4 5 4 4 5 5 4 2 4 6 8 10 10 11 12 13 12 12 12 11 12 11 10 9 8 7 6 6 7 7 7 6 6 6 6 6 6
4 5 2 7 6 2 1 4 6 2 3 4 4 5 3 3 4 6 7 9 9 10 10 11 12 13 15 15 14 12 11 10 9 8 7 8 8 7 7 7 7 5 6 6
7 6 3 8 7 5 2 2 4 5 4 5 5 5 3 4 4 6 7 8 8 9 11 11 13 13 14 13 13 12 12 12 11 10 9 9 9 9 9 8 7 5 5 5
6 5 6 7 8 5 4 3 2 5 4 6 7 5 3 7 8 8 8 8 8 9 10 11 11 11 11 11 11 12 12 12 13 12 10 10 10 10 10 8 7 6 5 4
5 4 7 8 6 2 1 4 4 1 2 5 2 4 2 6 7 8 9 9 9 10 11 11 10 10 10 11 11 11 12 12 13 13 12 12 11 9 9 8 8 6 5 4
3 3 3 4 3 2 3 6 5 5 5 4 5 3 3 6 6 8 10 10 11 11 12 12 12 12 12 12 13 13 13 13 13 13 13 12 10 8 8 9 8 6 5 4
1 4 3 4 4 3 4 7 4 4 4 4 3 3 8 9 12 13 12 10 11 13 14 15 14 13 13 13 12 12 12 13 12 12 13 12 10 9 8 8 8 8 7 5
5 4 3 1 3 1 2 4 5 4 3 4 3 6 8 10 13 13 10 8 11 14 15 15 14 14 14 13 13 12 12 12 12 12 12 12 11 10 9 7 8 9 8 7
3 6 4 2 1 2 2 3 4 3 1 3 5 9 10 11 10 8 6 7 11 14 15 15 14 15 14 15 14 13 13 12 12 12 12 12 11 11 10 9 9 8 8 9
7 6 5 3 1 0 2 6 8 3 2 2 6 9 11 10 9 8 9 12 16 17 16 15 15 14 14 15 13 12 14 13 14 14 13 11 11 11 11 10 9 8 9 10
7 7 5 3 1 2 4 10 8 1 5 7 8 10 11 9 10 12 15 17 17 18 18 17 15 14 14 14 12 13 14 15 15 13 12 12 11 11 11 10 8 8 9 10
3 4 4 4 4 3 6 6 3 5 6 7 9 10 12 13 15 16 17 16 16 17 17 16 14 15 14 13 12 14 15 16 14 12 13 13 12 12 11 8 8 7 8 11
3 1 1 2 1 3 3 4 6 6 8 10 9 12 15 14 16 17 16 16 16 16 16 14 14 16 15 13 12 15 16 15 14 13 14 14 13 11 10 9 9 7 7 9
4 3 2 2 2 5 7 6 6 7 9 11 13 15 14 16 18 18 17 16 15 16 16 15 15 16 16 14 14 15 16 15 14 14 14 13 12 12 10 9 8 7 7 9
2 2 2 1 5 8 7 7 9 10 12 13 14 14 14 16 18 19 18 17 17 17 15 15 16 17 18 16 16 16 16 14 14 14 14 13 12 11 10 9 9 9 9 9
1 2 1 3 6 5 10 10 11 12 12 15 16 15 14 16 19 20 19 17 17 17 16 16 17 17 18 17 16 16 15 14 14 13 12 11 10 9 9 9 10 12 12 12
Wind_Direction
22 50 266 238 206 207 203 205 288 298 328 58 63 46 19 28 73 109 119 122 120 108 90 97 121 126 130 142 156 168 178 189 171 167 197 231 255 263 267 269 277 283 281 277
17 309 255 234 197 185 181 141 279 306 358 64 66 25 351 11 9 141 142 139 127 115 112 133 154 159 168 176 182 185 188 187 188 187 195 214 247 271 274 292 303 304 303 297
236 267 292 153 137 126 139 160 187 263 1 33 47 358 345 352 22 56 77 107 135 160 177 196 204 208 202 203 200 198 202 201 205 200 126 358 347 328 320 316 315 314 314 308
292 285 337 43 72 138 209 246 201 132 66 334 32 308 299 331 349 16 171 181 200 208 211 216 220 222 222 222 215 210 209 211 215 178 173 207 252 277 276 290 296 306 309 310
309 315 349 353 306 174 183 50 67 62 113 50 27 90 293 338 306 253 224 217 221 226 224 227 229 232 236 232 222 218 212 219 222 205 201 215 247 259 284 297 301 305 307 307
285 311 311 268 20 53 103 68 50 46 65 59 329 80 286 269 247 250 230 230 233 234 237 244 252 255 254 244 225 215 211 223 221 216 216 220 245 271 293 302 307 308 306 304
337 334 336 1 39 19 66 70 23 5 10 270 285 213 252 278 279 251 237 238 249 256 259 267 269 263 255 241 230 223 217 226 223 221 228 229 237 250 265 281 293 303 308 307
329 309 304 325 190 214 126 131 151 209 238 281 325 238 253 351 351 349 345 351 355 346 334 317 303 289 276 257 240 228 226 233 228 225 231 231 234 240 253 264 274 283 289 294
198 261 291 316 289 158 142 149 160 140 175 263 286 294 318 3 11 16 22 24 17 7 1 352 347 339 324 308 284 257 244 247 245 241 240 241 241 242 251 260 267 276 282 292
173 238 295 323 21 31 119 139 102 120 160 251 286 302 317 346 357 10 21 22 16 15 17 15 12 9 4 357 351 348 318 283 273 263 253 253 248 248 249 254 263 274 285 292
143 179 303 350 9 334 38 85 96 111 156 173 251 268 44 7 352 3 13 16 14 15 16 16 15 14 14 14 11 3 351 336 317 295 278 266 258 252 251 252 259 269 281 292
119 124 282 291 282 283 256 141 140 132 258 193 211 247 57 53 11 11 9 7 9 12 13 13 13 14 15 12 8 2 353 341 323 306 290 274 264 254 250 252 257 263 275 287
141 110 28 344 340 347 48 135 144 133 139 176 195 229 86 38 13 3 358 355 358 4 9 11 12 11 7 2 359 355 350 340 329 319 304 289 273 256 249 247 251 256 267 285
118 124 169 213 232 242 287 310 146 145 190 226 219 176 12 359 352 347 348 346 353 0 3 4 1 356 353 349 346 344 341 338 333 324 312 298 285 264 250 244 241 244 253 272
113 183 221 238 247 222 305 350 10 117 236 227 208 119 2 333 329 328 334 340 351 355 354 353 348 342 338 337 336 335 331 330 330 326 317 303 295 278 254 241 236 234 239 248
88 189 210 281 276 164 75 28 37 35 23 63 89 76 332 317 324 330 331 336 341 342 339 337 335 332 329 327 325 324 322 322 324 324 320 311 301 291 265 245 232 225 225 225
93 140 138 276 310 87 37 3 42 59 28 39 52 338 328 333 335 328 320 321 328 331 328 325 321 316 311 307 306 306 307 311 315 317 320 318 309 297 284 261 235 222 216 207
135 118 134 289 16 275 92 52 82 104 83 55 26 334 331 322 313 300 293 294 311 316 314 310 306 302 299 297 294 292 295 299 303 307 313 317 314 307 297 277 249 230 212 203
112 127 104 90 103 123 124 29 11 326 250 48 345 326 321 317 309 296 285 287 294 296 297 295 292 291 290 289 288 289 291 292 295 297 300 306 308 307 301 286 267 245 219 206
45 68 90 80 0 328 16 327 325 283 237 14 322 312 315 326 319 299 294 298 300 300 299 296 294 292 288 287 285 283 284 286 286 287 289 293 294 293 294 285 270 256 229 213
11 23 50 50 46 78 320 313 323 351 307 310 303 298 301 292 277 283 292 296 295 296 297 296 295 292 288 288 286 282 282 278 277 279 283 286 285 282 282 282 273 257 235 214
34 35 27 20 20 357 334 2 32 272 279 285 291 291 291 289 289 294 297 296 295 297 296 296 294 291 289 287 284 283 281 279 279 279 281 280 280 281 283 280 280 263 239 216
57 54 44 75 156 256 275 264 264 267 283 288 287 290 295 295 295 297 295 293 294 292 293 290 287 289 288 282 276 278 281 281 280 278 278 278 278 277 268 267 271 265 244 223
11 3 98 72 311 292 291 281 280 282 281 285 288 290 292 291 292 293 292 290 288 288 287 287 286 287 287 282 277 274 278 278 277 276 277 276 274 277 269 259 257 254 245 225
331 20 58 341 294 308 303 291 291 298 299 297 295 293 290 289 291 292 293 291 290 289 287 285 284 285 284 282 279 278 277 275 275 275 276 275 271 272 270 259 250 246 239 227
259 144 137 252 261 262 278 285 295 296 293 294 296 296 287 285 289 293 294 292 291 291 290 289 287 285 285 283 281 279 274 271 272 275 274 273 271 271 267 262 263 245 236 230
Height
1501 1505 1509 1505 1503 1503 1504 1507 1509 1503 1495 1498 1500 1499 1496 1494 1493 1493 1494 1495 1496 1498 1500 1502 1504 1506 1508 1510 1511 1512 1512 1511 1511 1510 1509 1508 1507 1506 1505 1503 1502 1501 1499 1498
1506 1507 1499 1497 1498 1501 1504 1508 1507 1502 1496 1498 1502 1502 1499 1497 1497 1496 1496 1497 1497 1499 1501 1503 1505 1506 1508 1509 1510 1510 1510 1510 1509 1509 1507 1506 1504 1503 1501 1499 1497 1496 1494 1492
1507 1502 1494 1495 1498 1502 1504 1506 1504 1503 1500 1501 1503 1509 1504 1500 1499 1499 1499 1499 1500 1501 1502 1503 1504 1505 1507 1508 1509 1509 1509 1508 1508 1507 1506 1504 1502 1499 1497 1495 1493 1491 1489 1487
1503 1497 1495 1496 1498 1499 1506 1498 1499 1501 1509 1516 1511 1525 1510 1505 1502 1501 1500 1500 1501 1501 1502 1502 1503 1504 1505 1506 1507 1507 1507 1507 1506 1505 1503 1501 1499 1496 1494 1491 1489 1486 1484 1482
1504 1498 1498 1499 1497 1496 1499 1498 1501 1505 1510 1519 1517 1525 1519 1507 1506 1502 1500 1500 1500 1500 1501 1501 1502 1503 1504 1505 1505 1505 1505 1505 1504 1502 1500 1498 1496 1494 1491 1488 1485 1482 1480 1477
1501 1496 1496 1496 1494 1494 1496 1503 1509 1516 1523 1532 1522 1525 1524 1513 1505 1501 1498 1498 1498 1499 1500 1500 1501 1502 1502 1503 1503 1503 1503 1502 1501 1499 1497 1495 1493 1490 1487 1484 1481 1478 1475 1472
1508 1501 1496 1494 1497 1498 1501 1517 1536 1538 1543 1538 1523 1525 1523 1506 1502 1499 1497 1496 1497 1498 1499 1499 1500 1500 1500 1501 1501 1501 1500 1499 1498 1496 1494 1492 1490 1487 1484 1480 1477 1473 1470 1467
1519 1519 1500 1495 1497 1502 1504 1515 1537 1545 1547 1539 1526 1525 1514 1506 1503 1500 1500 1500 1499 1499 1499 1499 1499 1499 1498 1498 1498 1498 1497 1496 1495 1493 1491 1489 1486 1484 1480 1477 1474 1470 1466 1463
1519 1517 1498 1495 1494 1496 1506 1513 1516 1532 1535 1541 1533 1520 1510 1504 1504 1503 1502 1500 1500 1499 1498 1497 1496 1495 1495 1494 1494 1494 1493 1492 1491 1490 1488 1486 1483 1480 1477 1474 1470 1467 1463 1459
1507 1514 1503 1497 1495 1497 1500 1510 1523 1533 1542 1545 1533 1527 1530 1521 1517 1512 1508 1505 1503 1500 1497 1495 1493 1491 1491 1490 1490 1490 1489 1488 1487 1486 1484 1482 1480 1477 1473 1470 1467 1463 1460 1456
1502 1514 1510 1505 1504 1505 1505 1512 1522 1532 1534 1542 1543 1536 1525 1525 1522 1518 1514 1510 1506 1502 1499 1496 1493 1491 1489 1488 1487 1486 1485 1484 1483 1482 1480 1478 1475 1473 1470 1466 1463 1460 1456 1452
1506 1516 1521 1513 1503 1502 1502 1506 1518 1527 1529 1535 1540 1538 1523 1523 1521 1519 1516 1512 1508 1504 1500 1497 1493 1491 1488 1486 1485 1484 1482 1480 1479 1477 1475 1472 1470 1468 1465 1462 1459 1456 1453 1449
1505 1516 1527 1525 1518 1506 1504 1505 1510 1519 1528 1536 1539 1532 1522 1522 1520 1519 1516 1512 1509 1505 1500 1496 1493 1490 1488 1486 1483 1481 1479 1476 1474 1471 1469 1466 1464 1462 1460 1458 1455 1452 1449 1446
1499 1512 1521 1525 1519 1509 1508 1506 1509 1518 1526 1528 1524 1522 1523 1521 1520 1517 1515 1512 1509 1505 1501 1497 1493 1491 1488 1485 1482 1479 1475 1472 1468 1465 1462 1459 1457 1455 1453 1452 1450 1448 1446 1443
1498 1509 1509 1508 1505 1505 1508 1510 1511 1514 1517 1521 1519 1523 1525 1523 1521 1518 1515 1511 1508 1504 1500 1497 1493 1490 1487 1483 1479 1476 1472 1468 1464 1460 1456 1452 1450 1448 1447 1446 1445 1444 1442 1440
1500 1505 1506 1506 1502 1504 1511 1514 1515 1518 1519 1520 1522 1526 1524 1522 1520 1517 1514 1510 1506 1503 1499 1495 1492 1488 1485 1481 1477 1473 1469 1464 1460 1455 1451 1446 1443 1441 1440 1439 1439 1439 1438 1437
1504 1507 1512 1515 1507 1506 1521 1523 1521 1524 1525 1524 1526 1528 1524 1521 1519 1516 1512 1508 1505 1501 1498 1494 1490 1486 1482 1478 1474 1470 1465 1461 1456 1451 1446 1441 1437 1435 1433 1433 1433 1433 1433 1433
1506 1511 1517 1518 1512 1521 1533 1525 1524 1525 1527 1526 1526 1526 1524 1522 1517 1513 1509 1506 1502 1499 1495 1491 1487 1482 1478 1474 1470 1465 1461 1456 1452 1447 1442 1437 1433 1430 1428 1426 1426 1427 1427 1428
1504 1510 1519 1523 1522 1526 1528 1526 1527 1527 1526 1528 1527 1524 1521 1518 1514 1509 1507 1504 1500 1496 1491 1486 1481 1477 1472 1468 1464 1459 1455 1450 1446 1441 1437 1433 1429 1425 1422 1420 1420 1420 1421 1421
1508 1511 1520 1524 1522 1527 1535 1528 1526 1527 1526 1528 1526 1523 1520 1516 1514 1507 1503 1499 1494 1489 1484 1479 1474 1469 1464 1460 1456 1451 1447 1443 1439 1435 1431 1427 1424 1420 1417 1414 1413 1413 1413 1415
1521 1523 1527 1529 1528 1534 1535 1529 1525 1531 1532 1527 1524 1521 1517 1514 1511 1503 1497 1493 1488 1483 1477 1472 1467 1461 1457 1453 1448 1442 1438 1434 1431 1427 1423 1420 1417 1414 1410 1408 1406 1405 1405 1407
1532 1531 1532 1532 1532 1538 1535 1530 1533 1534 1527 1524 1521 1517 1512 1508 1502 1496 1491 1486 1480 1475 1470 1465 1459 1453 1449 1445 1440 1433 1429 1426 1422 1418 1415 1412 1409 1406 1403 1401 1398 1398 1398 1399
1536 1537 1535 1537 1540 1537 1534 1532 1531 1528 1525 1521 1517 1512 1507 1501 1495 1490 1484 1479 1473 1467 1462 1456 1451 1444 1439 1436 1431 1425 1420 1416 1412 1408 1405 1402 1400 1398 1396 1393 1391 1390 1391 1391
1537 1535 1536 1537 1535 1534 1531 1530 1528 1525 1521 1516 1512 1506 1501 1495 1489 1483 1476 1470 1464 1459 1453 1447 1441 1435 1429 1425 1420 1415 1410 1406 1402 1398 1395 1392 1390 1388 1386 1385 1384 1382 1382 1383
1539 1536 1537 1537 1535 1531 1528 1527 1524 1520 1516 1511 1506 1501 1496 1489 1482 1475 1468 1461 1455 1449 1443 1438 1431 1424 1418 1414 1409 1404 1400 1396 1391 1388 1384 1382 1380 1378 1376 1375 1375 1374 1374 1375
1537 1538 1538 1538 1533 1532 1527 1523 1519 1515 1510 1505 1499 1493 1488 1482 1475 1467 1460 1453 1446 1439 1433 1427 1420 1414 1407 1402 1397 1393 1389 1385 1381 1377 1374 1372 1370 1368 1367 1366 1365 1365 1366 1367